Location: DARK SKY Beskydy - Park tmavé oblohy, www.darkskybeskydy.cz
(49.4926°N, 18.5016°E)
Time: 15:34:49
(UTC+02:00)

Altair - Visible Passes

Search period start: 16 June 2025 00:00
Search period end: 26 June 2025 00:00
Orbit: 1502 x 1682 km, 47.2° (Epoch: 15 June)

Date Brightness Start Highest point End Pass type
(mag) Time Alt. Az. Time Alt. Az. Time Alt. Az.
16 Jun 7.6 00:49:35 13° SW 00:57:30 50° SSE 01:06:36 10° ENE visible
16 Jun 7.5 02:52:15 10° WSW 03:01:38 77° S 03:11:25 10° E visible
16 Jun 8.6 22:25:33 12° SSE 22:29:36 17° SE 22:34:52 10° E visible
17 Jun 7.7 00:23:41 10° SW 00:32:22 47° SSE 00:41:20 10° ENE visible
17 Jun 7.5 02:27:04 10° WSW 02:36:25 76° S 02:46:09 10° E visible
17 Jun 8.7 22:00:01 10° SSE 22:04:34 15° SE 22:09:10 10° E visible
17 Jun 7.7 23:58:40 10° SW 00:07:13 45° SE 00:16:03 10° ENE visible
18 Jun 7.4 02:01:54 10° WSW 02:11:12 75° S 02:20:53 10° E visible
18 Jun 8.7 21:35:48 10° SSE 21:39:33 13° SE 21:43:18 10° E visible
18 Jun 7.7 23:33:40 10° SSW 23:42:06 42° SE 23:50:45 10° ENE visible
19 Jun 7.4 01:36:43 10° WSW 01:46:00 74° SSE 01:55:37 10° E visible
19 Jun 7.6 03:41:07 10° W 03:50:32 75° SSW 04:00:21 10° ESE visible
19 Jun 7.8 23:08:42 10° SSW 23:16:58 39° SE 23:25:28 10° ENE visible
20 Jun 7.4 01:11:33 10° WSW 01:20:47 72° SSE 01:30:21 10° E visible
20 Jun 7.5 03:15:55 10° W 03:25:19 76° S 03:35:06 10° ESE visible
20 Jun 7.8 22:43:45 10° SSW 22:51:52 37° SE 23:00:10 10° E visible
21 Jun 7.4 00:46:24 10° WSW 00:55:35 70° SSE 01:05:05 10° E visible
21 Jun 7.5 02:50:43 10° W 03:00:06 77° S 03:09:51 10° ESE visible
21 Jun 7.9 22:18:49 10° SSW 22:26:46 34° SE 22:34:52 10° E visible
22 Jun 7.4 00:21:15 10° WSW 00:30:23 68° SSE 00:39:50 10° E visible
22 Jun 7.5 02:25:31 10° W 02:34:52 78° S 02:44:35 10° ESE visible
22 Jun 8.0 21:53:55 10° SSW 22:01:40 32° SE 22:09:33 10° E visible
22 Jun 7.4 23:56:07 10° WSW 00:05:12 66° SSE 00:14:35 10° E visible
23 Jun 7.4 02:00:19 10° W 02:09:39 79° S 02:19:20 10° E visible
23 Jun 8.1 21:29:03 10° SSW 21:36:35 30° SE 21:44:14 10° E visible
23 Jun 7.4 23:30:59 10° WSW 23:40:01 64° SSE 23:49:19 10° E visible
24 Jun 7.4 01:35:07 10° W 01:44:25 79° S 01:54:04 10° E visible
24 Jun 7.6 03:39:37 10° W 03:48:45 57° SSW 03:58:15 10° SE visible
24 Jun 7.4 23:05:52 10° SW 23:14:50 61° SSE 23:24:04 10° E visible
25 Jun 7.4 01:09:56 10° W 01:19:12 79° S 01:28:48 10° E visible
25 Jun 7.5 03:14:24 10° W 03:23:34 60° SSW 03:33:05 10° SE visible
25 Jun 7.4 22:40:45 10° SW 22:49:40 59° SSE 22:58:49 10° E visible
